Location: LDNL
(36.4545°S, 141.6685°E)
Time: 03:49:12
(UTC+11:00)

A-11 Canister half - Pass Details

Date: 19 August 2022
Orbit: 1524 x 1684 km, 47.3° (Epoch: 05 October)

Event Time Altitude Azimuth Distance (km) Brightness Sun altitude
Rises 22:57:41 0° 239° (WSW) 4,698 12.0 -57.4°
Reaches altitude 10° 23:00:48 10° 243° (WSW) 3,720 11.3 -57.9°
Enters shadow 23:02:34 17° 247° (WSW) 3,192 10.9 -58.1°
Maximum altitude 23:09:48 53° 316° (NW) 1,858 - -59.2°
Drops below altitude 10° 23:18:59 10° 29° (NNE) 3,791 - -60.5°
Sets 23:22:13 0° 33° (NNE) 4,794 - -60.9°
